Home > Weather > Fushun > Past weeks

Flag for China Past Weather in Fushun, Liaoning, China — Yesterday and Last 2 Weeks

Now
82 °F

Clear.


Feels Like: 89 °F
Forecast: 70 / 85 °F
Wind: 3 mph from South

Location: Shenyang / Taoxian

Current Time: Jul 30, 2016 at 10:06:22 AM

Latest Report: Jul 30, 2016 at 9:30 AM


Visibility: 5 mi

Pressure: 29.83 "Hg

Humidity: 79%

Dew Point: 75 °F

Location of FushunLocation

Past Weather in Fushun — Graph

°F

Fushun Temperature Yesterday

Maximum temperature yesterday: 86 °F (at 2:30 PM)
Minimum temperature yesterday: 70 °F (at 12:30 AM)
Average temperature yesterday: 78 °F

High & Low Weather Summary for the Past Weeks

 TemperatureHumidityPressure
High90 °F (Jul 23, 2:00 PM)100% (Jul 16, 5:30 AM)29.89 "Hg (Jul 16, 5:30 AM)
Low64 °F (Jul 18, 12:30 AM)46% (Jul 18, 2:30 PM)29.53 "Hg (Jul 27, 2:00 PM)
Average77 °F83%29.69 "Hg
* Reported Jul 15 9:00 AM — Jul 30 9:00 AM, Fushun, Weather by CustomWeather, © 2016

Note: Actual official high and low records may vary slightly from our data, if they occured in-between our weather recording intervals... More about our weather records

Advertising

Fushun Weather History for the Previous 24 Hours

Scroll right to see more
 ConditionsComfort  
Time TempWeatherWind HumidityBarometerVisibility
9:00 AM
Sat, Jul 30
82 °FClear.3 mph79%29.83 "Hg4 mi
8:30 AM81 °FClear.3 mph84%29.83 "Hg4 mi
8:00 AM79 °FPartly sunny.1 mph84%29.83 "Hg4 mi
7:30 AM77 °FFog.1 mph89%29.83 "Hg3 mi
7:00 AM77 °FFog.No wind89%29.83 "Hg2 mi
6:30 AM75 °FFog.1 mph94%29.80 "Hg2 mi
6:00 AM75 °FScattered clouds.1 mph89%29.80 "Hg4 mi
5:30 AM75 °FScattered clouds.3 mph89%29.80 "Hg4 mi
5:00 AM75 °FScattered clouds.3 mph89%29.80 "Hg4 mi
4:30 AM75 °FPassing clouds.3 mph89%29.80 "Hg4 mi
4:00 AM73 °FFog.3 mph94%29.77 "Hg3 mi
3:30 AM73 °FFog.3 mph94%29.77 "Hg3 mi
3:00 AM73 °FFog.No wind94%29.77 "Hg3 mi
2:30 AM73 °FFog.No wind94%29.77 "Hg2 mi
2:00 AM75 °FFog.1 mph89%29.77 "Hg3 mi
1:30 AM75 °FPassing clouds.1 mph94%29.77 "Hg4 mi
1:00 AM75 °FPassing clouds.1 mph94%29.77 "Hg4 mi
12:30 AM75 °FPassing clouds.1 mph94%29.77 "Hg4 mi
12:00 AM75 °FPassing clouds.3 mph94%29.77 "Hg4 mi
11:30 PM
Fri, Jul 29
77 °FPassing clouds.1 mph89%29.77 "Hg4 mi
11:00 PM77 °FPassing clouds.1 mph89%29.77 "Hg4 mi
10:30 PM77 °FPassing clouds.1 mph89%29.77 "Hg4 mi
10:00 PM77 °FPassing clouds.1 mph94%29.77 "Hg4 mi
9:30 PM77 °FPassing clouds.1 mph94%29.77 "Hg4 mi
9:00 PM77 °FPassing clouds.3 mph94%29.77 "Hg4 mi
8:30 PM79 °FPassing clouds.3 mph89%29.74 "Hg4 mi
8:00 PM79 °FPassing clouds.3 mph89%29.74 "Hg4 mi
7:30 PM79 °FPassing clouds.1 mph89%29.74 "Hg4 mi
7:00 PM81 °FPassing clouds.1 mph84%29.74 "Hg4 mi
6:30 PM81 °FPassing clouds.1 mph84%29.74 "Hg4 mi
6:00 PM82 °FClear.3 mph79%29.74 "Hg4 mi
5:30 PM82 °FPassing clouds.6 mph79%29.71 "Hg4 mi
5:00 PM84 °FPassing clouds.6 mph74%29.71 "Hg4 mi
4:30 PM84 °FClear.6 mph74%29.71 "Hg4 mi
4:00 PM84 °FPartly sunny.8 mph70%29.71 "Hg4 mi
3:30 PM84 °FPartly sunny.6 mph74%29.71 "Hg4 mi
3:00 PM86 °FFog.6 mph70%29.71 "Hg3 mi
2:30 PM86 °FFog.3 mph75%29.71 "Hg3 mi
2:00 PM84 °FFog.6 mph74%29.71 "Hg3 mi
1:30 PM84 °FPartly sunny.6 mph74%29.71 "Hg4 mi
1:00 PM84 °FOvercast.3 mph74%29.71 "Hg4 mi
12:30 PM84 °FPartly sunny.6 mph70%29.71 "Hg4 mi
12:00 PM82 °FOvercast.6 mph74%29.71 "Hg4 mi
11:30 AM82 °FOvercast.3 mph79%29.71 "Hg4 mi
11:00 AM81 °FOvercast.1 mph79%29.71 "Hg4 mi
10:30 AM79 °FOvercast.1 mph84%29.71 "Hg4 mi
10:00 AM81 °FOvercast.No wind79%29.71 "Hg4 mi
Weather by CustomWeather, © 2016

See weather overviewHow to use our weather pages